K6BPM Weather Reports


Display with metric or nautical units.
time (UTC)temp
F
wind
direction
speed
MPH
gust
MPH
rain 1hr
in
rain 24hr
in
rain mn
in
humidity
%
barometer
mb
20240416113018 53 0.0 0.0 0.00 0.01 0.00 39 1015.1
20240416112017 52 0.0 0.0 0.00 0.01 0.00 35 1015.1
20240416111017 52 0.0 0.0 0.00 0.01 0.00 33 1015.3
20240416110017 53 0.0 0.0 0.00 0.01 0.00 32 1015.5
20240416105018 53 0.0 0.0 0.00 0.01 0.00 32 1015.5
20240416104018 53 0.0 0.0 0.00 0.01 0.00 31 1015.6
20240416103018 53 0.0 0.0 0.00 0.01 0.00 32 1015.6
20240416102018 53 0.0 0.0 0.00 0.01 0.00 32 1015.6
20240416101017 54 0.0 0.0 0.00 0.01 0.00 31 1015.4
20240416100017 54 0.0 0.0 0.00 0.01 0.00 31 1015.4
20240416095017 54 0.0 0.0 0.00 0.01 0.00 32 1015.4
20240416094017 53 0.0 0.0 0.00 0.01 0.00 32 1015.5
20240416093037 53 0.0 0.0 0.00 0.01 0.00 32 1015.5
20240416092017 54 0.0 0.0 0.00 0.01 0.00 32 1015.5
20240416091038 54 0.0 0.0 0.00 0.01 0.00 32 1015.8
20240416090017 54 0.0 0.0 0.00 0.01 0.00 32 1015.8
20240416085017 54 0.0 0.0 0.00 0.01 0.00 32 1015.9
20240416084017 54 0.0 0.0 0.00 0.01 0.00 33 1015.9
20240416083018 54 0.0 0.0 0.00 0.01 0.00 33 1016.0
20240416082017 54 0.0 0.0 0.00 0.01 0.00 33 1016.0
20240416081017 55 0.0 0.0 0.00 0.01 0.00 33 1016.0
20240416080017 55 0.0 0.0 0.00 0.01 0.00 33 1016.0
20240416075017 55 0.0 0.0 0.00 0.01 0.00 33 1016.1
20240416074017 55 0.0 0.0 0.00 0.01 0.00 33 1016.2
20240416073017 55 0.0 0.0 0.00 0.01 0.00 34 1016.3
20240416072018 55 0.0 0.0 0.00 0.01 0.00 34 1016.5
20240416071017 55 0.0 0.0 0.00 0.01 0.00 34 1016.3
20240416070037 55 0.0 0.0 0.00 0.01 0.01 35 1016.3
20240416065037 55 0.0 0.0 0.00 0.01 0.01 35 1016.4
20240416064017 55 0.0 0.0 0.00 0.01 0.01 36 1016.5
20240416063017 55 0.0 0.0 0.00 0.01 0.01 37 1016.5
20240416062018 56 0.0 0.0 0.00 0.01 0.01 38 1016.4
20240416061017 56 0.0 0.0 0.00 0.01 0.01 40 1016.6
20240416060018 56 0.0 0.0 0.00 0.01 0.01 42 1016.5
20240416055017 57 0.0 0.0 0.00 0.01 0.01 43 1016.5
20240416054017 57 0.0 0.0 0.00 0.01 0.01 46 1016.3
20240416053017 58 0.0 0.0 0.00 0.01 0.01 46 1016.2
20240416052017 58 0.0 0.0 0.00 0.01 0.01 43 1016.3
20240416051017 58 0.0 0.0 0.00 0.01 0.01 41 1016.2
20240416050037 57 0.0 0.0 0.00 0.01 0.01 39 1016.1
20240416045037 57 0.0 0.0 0.00 0.01 0.01 39 1016.1
20240416044017 57 0.0 0.0 0.00 0.01 0.01 39 1015.9
20240416043017 58 0.0 0.0 0.00 0.01 0.01 41 1016.0
20240416042017 58 0.0 0.0 0.00 0.01 0.01 42 1016.0
20240416041037 58 0.0 0.0 0.00 0.01 0.01 45 1015.9
20240416040037 59 0.0 0.0 0.00 0.01 0.01 46 1015.9
20240416035037 59 0.0 0.0 0.00 0.01 0.01 50 1015.8
20240416034037 59 0.0 0.0 0.00 0.01 0.01 54 1015.6
20240416033017 59 0.0 0.0 0.00 0.01 0.01 45 1015.5
20240416032018 59 0.0 0.0 0.00 0.01 0.01 44 1015.5
20240416031017 59 0.0 0.0 0.00 0.01 0.01 45 1015.2
20240416030017 60 0.0 0.0 0.00 0.01 0.01 47 1015.4
20240416025017 60 0.0 0.0 0.00 0.01 0.01 48 1015.2
20240416024017 60 0.0 0.0 0.00 0.01 0.01 51 1015.2
20240416023017 61 0.0 0.0 0.00 0.01 0.01 53 1015.0
20240416022017 62 0.0 0.0 0.00 0.01 0.01 55 1015.2
20240416021036 63 0.0 0.0 0.00 0.01 0.01 56 1015.2
20240416020037 63 0.0 0.0 0.00 0.01 0.01 58 1015.1
20240416015017 63 0.0 0.0 0.00 0.01 0.01 60 1015.1
20240416014017 63 0.0 0.0 0.00 0.01 0.01 61 1015.1
20240416013017 64 0.0 0.0 0.00 0.01 0.01 60 1015.2
20240416012037 63 0.0 0.0 0.00 0.01 0.01 59 1015.3
20240416011017 63 0.0 0.0 0.00 0.01 0.01 60 1015.4
20240416010017 63 0.0 0.0 0.00 0.01 0.01 62 1015.6
20240416005016 64 0.0 0.0 0.00 0.01 0.01 63 1015.7
20240416004017 65 0.0 0.0 0.00 0.01 0.01 63 1015.7
20240416003016 65 0.0 0.0 0.00 0.01 0.01 64 1015.7
20240416002017 64 0.0 0.0 0.00 0.01 0.01 63 1015.8
20240416001016 64 0.0 0.0 0.00 0.01 0.01 64 1015.9
20240416000016 64 0.0 0.0 0.00 0.01 0.01 64 1016.0
20240415235017 64 0.0 0.0 0.00 0.01 0.01 64 1016.0
20240415234017 64 0.0 0.0 0.00 0.01 0.01 64 1016.2
20240415233016 65 0.0 0.0 0.00 0.01 0.01 64 1016.4
20240415232017 65 0.0 0.0 0.00 0.01 0.01 64 1016.6
20240415231037 65 0.0 0.0 0.00 0.01 0.01 64 1016.6
20240415230016 65 0.0 0.0 0.00 0.01 0.01 64 1016.7
20240415225017 64 0.0 0.0 0.00 0.01 0.01 65 1016.9
20240415224017 65 0.0 0.0 0.00 0.01 0.01 64 1017.0
20240415223017 65 0.0 0.0 0.00 0.01 0.01 65 1017.3
20240415222017 65 0.0 0.0 0.00 0.01 0.01 64 1017.5
20240415221037 65 0.0 0.0 0.00 0.01 0.01 65 1017.8
20240415220016 65 0.0 0.0 0.00 0.01 0.01 64 1018.0
20240415215016 64 0.0 0.0 0.00 0.01 0.01 65 1018.1
20240415214016 64 0.0 0.0 0.00 0.01 0.01 65 1018.3
20240415213016 65 0.0 0.0 0.00 0.01 0.01 64 1018.4
20240415212017 65 0.0 0.0 0.00 0.01 0.01 63 1018.5
20240415211037 65 0.0 0.0 0.00 0.01 0.01 65 1018.4
20240415210016 66 0.0 0.0 0.00 0.01 0.01 64 1018.3
20240415205016 67 0.0 0.0 0.00 0.01 0.01 62 1018.4
20240415204016 67 0.0 0.0 0.00 0.01 0.01 61 1018.4
20240415203016 66 0.0 0.0 0.00 0.01 0.01 63 1018.7
20240415202016 66 0.0 0.0 0.00 0.01 0.01 60 1018.9
20240415201016 65 0.0 0.0 0.00 0.01 0.01 59 1018.9
20240415200017 65 0.0 0.0 0.00 0.01 0.01 60 1019.1
20240415195016 65 0.0 0.0 0.00 0.01 0.01 59 1019.1
20240415194017 64 0.0 0.0 0.00 0.01 0.01 54 1019.2
20240415193016 62 0.0 0.0 0.00 0.01 0.01 49 1019.2
20240415192018 61 0.0 0.0 0.00 0.01 0.01 49 1019.4
20240415191017 61 0.0 0.0 0.00 0.02 0.01 46 1019.5
20240415190017 60 0.0 0.0 0.00 0.05 0.01 43 1019.4
20240415185016 59 0.0 0.0 0.00 0.14 0.01 49 1019.6
20240415184017 60 0.0 0.0 0.00 0.22 0.01 51 1019.8
20240415183016 60 0.0 0.0 0.00 0.25 0.01 51 1020.0
20240415182016 61 0.0 0.0 0.00 0.25 0.01 51 1020.0
20240415181016 61 0.0 0.0 0.00 0.25 0.01 54 1020.0
20240415180017 62 0.0 0.0 0.00 0.26 0.01 51 1020.0
20240415175016 62 0.0 0.0 0.00 0.26 0.01 50 1019.9
20240415174016 62 0.0 0.0 0.00 0.28 0.01 54 1020.0
20240415173036 63 0.0 0.0 0.00 0.29 0.01 54 1020.0
20240415172017 62 0.0 0.0 0.00 0.32 0.01 51 1019.6
20240415171036 62 0.0 0.0 0.00 0.34 0.01 52 1019.7
20240415170016 61 0.0 0.0 0.00 0.36 0.01 52 1019.6
20240415165016 61 0.0 0.0 0.00 0.40 0.01 52 1019.5
20240415164016 60 0.0 0.0 0.00 0.42 0.01 50 1019.4
20240415163016 60 0.0 0.0 0.00 0.44 0.01 47 1019.3
20240415162016 59 0.0 0.0 0.00 0.45 0.01 47 1019.2
20240415161016 59 0.0 0.0 0.00 0.46 0.01 44 1019.0
20240415160036 58 0.0 0.0 0.00 0.46 0.01 41 1018.8
20240415155016 58 0.0 0.0 0.00 0.49 0.01 41 1018.5
20240415154016 58 0.0 0.0 0.00 0.49 0.01 37 1018.5
20240415153016 57 0.0 0.0 0.00 0.49 0.01 34 1018.2
20240415152015 56 0.0 0.0 0.00 0.49 0.01 31 1018.1
20240415151016 55 0.0 0.0 0.01 0.50 0.01 31 1018.1
20240415150016 55 0.0 0.0 0.01 0.52 0.01 31 1017.9
20240415145035 54 0.0 0.0 0.01 0.53 0.01 31 1017.8
20240415144016 53 0.0 0.0 0.01 0.53 0.01 31 1017.9
20240415143015 52 0.0 0.0 0.01 0.53 0.01 32 1017.6
20240415142036 51 0.0 0.0 0.01 0.53 0.01 32 1017.7
20240415141015 51 0.0 0.0 0.00 0.52 0.00 32 1017.8
20240415140015 50 0.0 0.0 0.00 0.52 0.00 33 1017.6
20240415135036 50 0.0 0.0 0.00 0.52 0.00 33 1017.6
20240415134015 50 0.0 0.0 0.00 0.52 0.00 33 1017.4
20240415133015 50 0.0 0.0 0.00 0.52 0.00 33 1016.9
20240415132016 50 0.0 0.0 0.00 0.52 0.00 33 1016.9
20240415131016 51 0.0 0.0 0.00 0.52 0.00 33 1017.0
20240415130019 51 0.0 0.0 0.00 0.52 0.00 33 1016.8
20240415125018 51 0.0 0.0 0.00 0.52 0.00 33 1016.9
20240415124019 51 0.0 0.0 0.00 0.52 0.00 34 1016.7
20240415123018 50 0.0 0.0 0.00 0.52 0.00 34 1016.8
20240415122019 50 0.0 0.0 0.00 0.52 0.00 35 1016.8
20240415121018 50 0.0 0.0 0.00 0.52 0.00 36 1016.6
20240415120019 50 0.0 0.0 0.00 0.53 0.00 37 1016.6
20240415115018 50 0.0 0.0 0.00 0.53 0.00 37 1016.5
20240415114018 50 0.0 0.0 0.00 0.53 0.00 39 1016.6